Location: ????????
(56.1167°N, 38.6333°E)
Time: 20:24:08
(UTC+00:00)

Nadezhda 4 Rocket - Pass Details

Date: 18 November 2025
Orbit: 948 x 991 km, 82.9° (Epoch: 14 December)

Event Time Altitude Azimuth Distance (km) Brightness Sun altitude
Rises 15:03:16 0° 348° (NNW) 3,713 7.0 -15.0°
Reaches altitude 10° 15:05:51 10° 352° (N) 2,757 6.3 -15.3°
Maximum altitude 15:12:08 66° 74° (ENE) 1,068 3.9 -16.2°
Drops below altitude 10° 15:18:20 10° 157° (SSE) 2,711 6.2 -17.0°
Sets 15:20:50 0° 160° (SSE) 3,648 6.9 -17.4°
